This is the latest recevied weather packets stored in our database for station/object G4MHJ-1. If no packets are shown the sender has not sent any weather packets the latest 10 day(s).
| Time | Temp. | Humidity | Pressure | Rain* | Wind** | Luminosity | Snow |
|---|---|---|---|---|---|---|---|
| 1788577128 | 13.33° C | 88% | 1019.7 hPa | 0 mm | - | 0 W/m² | - |
| 1788573529 | 13.33° C | 86% | 1019.2 hPa | 0 mm | - | 0 W/m² | - |
| 1788569929 | 13.89° C | 84% | 1018.9 hPa | 0 mm | - | 0 W/m² | - |
| 1788566328 | 14.44° C | 82% | 1018.6 hPa | 0 mm | - | 0 W/m² | - |
| 1788562723 | 15° C | 81% | 1018.3 hPa | 0 mm | - | 0 W/m² | - |
| 1788559122 | 16.11° C | 78% | 1018 hPa | 0 mm | - | 0 W/m² | - |
| 1788555520 | 16.67° C | 75% | 1017.7 hPa | 0 mm | - | 0 W/m² | - |
| 1788551921 | 17.78° C | 69% | 1017.4 hPa | 0 mm | - | 0 W/m² | - |
| 1788548319 | 18.33° C | 65% | 1016.3 hPa | 0 mm | - | 0 W/m² | - |
| 1788544719 | 18.89° C | 64% | 1015.6 hPa | 0 mm | - | 12 W/m² | - |
| 1788541117 | 19.44° C | 58% | 1015 hPa | 0 mm | - | 47 W/m² | - |
| 1788537514 | 20.56° C | 59% | 1014.3 hPa | 0 mm | - | 67 W/m² | - |
| 1788533915 | 20° C | 62% | 1014.1 hPa | 2.79 mm | - | 204 W/m² | - |
| 1788530315 | 20.56° C | 63% | 1013.9 hPa | 0 mm | - | 105 W/m² | - |
| 1788526714 | 20.56° C | 67% | 1013.4 hPa | 0 mm | - | 183 W/m² | - |
| 1788523111 | 20.56° C | 68% | 1012.6 hPa | 0 mm | - | 149 W/m² | - |
| 1788519511 | 20.56° C | 78% | 1012.5 hPa | 0 mm | - | 199 W/m² | - |
| 1788515910 | 18.89° C | 91% | 1011.6 hPa | 0 mm | - | 181 W/m² | - |
| 1788512309 | 18.89° C | 93% | 1011.5 hPa | 0 mm | - | 95 W/m² | - |
| 1788508709 | 21.67° C | 84% | 1009.9 hPa | 0 mm | - | 137 W/m² | - |
| 1788505109 | 20.56° C | 84% | 1009.4 hPa | 0 mm | - | 39 W/m² | - |
| 1788501510 | 20.56° C | 86% | 1010.1 hPa | 0 mm | - | 11 W/m² | - |
| 1788497909 | 20.56° C | 86% | 1010.2 hPa | 0 mm | - | 0 W/m² | - |
| 1788494310 | 20.56° C | 86% | 1010.5 hPa | 0 mm | - | 0 W/m² | - |
| 1788490710 | 20.56° C | 84% | 1011.5 hPa | 0 mm | - | 0 W/m² | - |
* Rain latest hour (hover to see other rain measurements)
** Current wind speed in m/s (hover to see current wind gust speed)